CW6294 Weather Reports


Display with metric or nautical units.
time (UTC)temp
F
wind
direction
speed
MPH
gust
MPH
rain 1hr
in
rain 24hr
in
rain mn
in
humidity
%
barometer
mb
20260903104048 73 118 0.0 0.0 0.00 0.13 0.00 100 1015.1
20260903102513 73 118 0.0 0.0 0.00 0.13 0.00 100 1014.8
20260903100958 73 118 0.0 0.0 0.00 0.13 0.00 100 1014.6
20260903100150 73 118 0.0 0.0 0.00 0.13 0.00 100 1014.8
20260903093954 73 118 0.0 0.0 0.00 0.13 0.00 100 1014.9
20260903092451 73 118 0.0 0.0 0.00 0.13 0.00 100 1014.9
20260903090943 73 118 0.0 0.0 0.00 0.13 0.00 100 1014.9
20260903085440 73 118 0.0 0.0 0.00 0.13 0.00 100 1014.9
20260903083934 73 118 0.0 0.0 0.00 0.13 0.00 100 1014.8
20260903082425 73 118 0.0 0.0 0.00 0.13 0.00 100 1014.6
20260903080917 73 118 0.0 0.0 0.00 0.13 0.00 100 1014.8
20260903075415 73 118 0.0 0.0 0.00 0.13 0.00 100 1014.8
20260903073914 73 118 0.0 0.0 0.00 0.13 0.00 100 1015.0
20260903072410 73 118 0.0 0.0 0.00 0.13 0.00 100 1014.9
20260903070853 73 118 0.0 0.0 0.00 0.13 0.00 100 1014.9
20260903065351 73 117 0.0 0.0 0.00 0.13 0.00 100 1014.8
20260903063842 73 117 0.0 2.0 0.00 0.13 0.00 100 1014.9
20260903062332 73 159 0.0 1.0 0.00 0.13 0.00 100 1014.9
20260903060809 73 171 0.0 3.0 0.00 0.13 0.00 100 1014.9
20260903055308 73 77 0.0 0.0 0.00 0.13 0.00 100 1015.2
20260903053804 73 77 0.0 0.0 0.00 0.13 0.00 100 1015.2
20260903052306 73 77 0.0 0.0 0.00 0.13 0.00 100 1015.2
20260903050754 73 77 0.0 0.0 0.00 0.13 0.00 100 1015.3
20260903045250 74 77 0.0 0.0 0.00 0.13 0.00 100 1015.4
20260903043742 73 77 0.0 0.0 0.00 0.13 0.00 100 1015.4
20260903042236 73 77 0.0 0.0 0.00 0.13 0.00 100 1015.6
20260903040732 74 77 0.0 0.0 0.00 0.13 0.00 100 1015.4
20260903035230 74 77 0.0 0.0 0.00 0.13 0.13 100 1015.6
20260903033647 74 77 0.0 0.0 0.00 0.13 0.13 100 1015.6
20260903032138 74 77 0.0 0.0 0.00 0.13 0.13 100 1015.9
20260903031338 74 77 0.0 4.0 0.00 0.13 0.13 100 1015.6
20260903025132 75 101 0.0 2.0 0.00 0.13 0.13 100 1015.6
20260903023628 75 102 0.0 1.0 0.00 0.13 0.13 100 1015.5
20260903022127 75 202 0.0 0.0 0.00 0.13 0.13 100 1015.2
20260903020620 75 202 0.0 1.0 0.00 0.13 0.13 100 1015.0
20260903015111 75 202 0.0 0.0 0.00 0.13 0.13 100 1015.0
20260903013603 75 202 0.0 0.0 0.00 0.13 0.13 100 1015.3
20260903012100 75 202 0.0 0.0 0.00 0.13 0.13 100 1015.5
20260903010547 75 202 0.0 0.0 0.00 0.13 0.13 100 1015.7
20260903005046 75 201 0.0 0.0 0.00 0.13 0.13 100 1015.5
20260903003543 75 201 0.0 0.0 0.00 0.13 0.13 99 1015.3
20260903002041 75 201 0.0 0.0 0.00 0.13 0.13 99 1015.4
20260903001241 76 202 0.0 0.0 0.00 0.13 0.13 99 1015.3
20260902235724 76 202 0.0 0.0 0.00 0.13 0.13 99 1015.6
20260902233527 76 202 0.0 0.0 0.00 0.13 0.13 98 1015.3
20260902232014 77 202 0.0 0.0 0.00 0.13 0.13 98 1015.2
20260902230505 77 202 0.0 0.0 0.00 0.13 0.13 98 1015.6
20260902225005 77 201 0.0 0.0 0.00 0.13 0.13 98 1015.6
20260902223507 77 201 0.0 0.0 0.00 0.13 0.13 100 1015.6
20260902222002 76 202 0.0 0.0 0.00 0.13 0.13 100 1015.6
20260902220449 76 202 0.0 0.0 0.00 0.13 0.13 100 1015.8
20260902214947 76 202 0.0 0.0 0.00 0.13 0.13 100 1015.9
20260902213443 75 202 0.0 1.0 0.00 0.13 0.13 100 1016.3
20260902211936 75 202 0.0 0.0 0.00 0.13 0.13 100 1016.2
20260902210426 75 202 0.0 1.0 0.00 0.13 0.13 100 1016.3
20260902204910 74 202 0.0 0.0 0.00 0.13 0.13 100 1016.1
20260902203356 75 202 0.0 1.0 0.00 0.13 0.13 100 1016.1
20260902202550 75 202 0.0 1.0 0.00 0.13 0.13 100 1015.9
20260902201034 74 202 0.0 1.0 0.00 0.13 0.13 100 1016.1
20260902194844 74 202 1.0 4.0 0.00 0.13 0.13 100 1016.5
20260902194050 75 201 0.0 0.0 0.04 0.13 0.13 100 1016.1
20260902192532 74 201 1.0 4.0 0.13 0.13 0.13 100 1016.3
20260902190333 75 53 1.0 7.0 0.13 0.13 0.13 100 1015.8
20260902184825 75 66 2.0 9.0 0.13 0.13 0.13 100 1016.3
20260902183325 75 49 2.0 7.0 0.09 0.09 0.11 96 1017.0
20260902181824 78 111 4.0 15.0 0.00 0.00 0.00 90 1018.7
20260902180310 85 35 6.0 20.0 0.00 0.00 0.00 77 1018.1
20260902174809 90 40 0.0 2.0 0.00 0.00 0.00 78 1017.1
20260902173308 92 76 0.0 0.0 0.00 0.00 0.00 76 1017.1
20260902171807 91 61 0.0 0.0 0.00 0.00 0.00 76 1016.9
20260902170249 91 57 0.0 0.0 0.00 0.00 0.00 75 1016.7
20260902164744 93 80 0.0 0.0 0.00 0.00 0.00 74 1016.8
20260902163946 91 84 0.0 0.0 0.00 0.00 0.00 77 1016.8
20260902162421 91 83 0.0 0.0 0.00 0.00 0.00 75 1016.7
20260902160214 91 244 0.0 0.0 0.00 0.00 0.00 75 1016.5
20260902155407 90 51 0.0 0.0 0.00 0.00 0.00 77 1016.5
20260902153905 89 153 0.0 0.0 0.00 0.00 0.00 77 1016.5
20260902151712 88 123 0.0 0.0 0.00 0.00 0.00 79 1016.4
20260902150206 87 71 0.0 0.0 0.00 0.00 0.00 80 1016.5
20260902144704 88 66 0.0 0.0 0.00 0.00 0.00 79 1016.5
20260902143208 87 85 0.0 0.0 0.00 0.00 0.00 80 1016.4
20260902141659 86 50 0.0 0.0 0.00 0.00 0.00 82 1016.5
20260902140153 85 107 0.0 0.0 0.00 0.00 0.00 82 1016.5
20260902134645 85 92 0.0 0.0 0.00 0.00 0.00 83 1016.4
20260902133841 83 50 0.0 5.0 0.00 0.00 0.00 85 1016.5
20260902132335 83 53 0.0 6.0 0.00 0.00 0.00 86 1016.3
20260902130142 82 68 0.0 0.0 0.00 0.00 0.00 87 1016.3
20260902124633 81 109 0.0 0.0 0.00 0.00 0.00 90 1016.3
20260902123133 79 109 0.0 0.0 0.00 0.00 0.00 93 1016.1
20260902121636 79 109 0.0 2.0 0.00 0.00 0.00 93 1016.1
20260902120135 78 61 0.0 0.0 0.00 0.00 0.00 95 1015.9
20260902114624 78 59 0.0 0.0 0.00 0.00 0.00 95 1015.8
20260902113116 78 59 0.0 0.0 0.00 0.00 0.00 95 1015.6
20260902111608 77 59 0.0 0.0 0.00 0.00 0.00 95 1015.7
20260902110105 77 59 0.0 0.0 0.00 0.00 0.00 95 1015.8